Location: Dos Palmas
(32.4468°N, 116.8732°W)
Time: 01:04:28
(UTC+00:00)

Meteor 1-24 Rocket - Pass Details

Date: 27 October 2021
Orbit: 790 x 927 km, 81.3° (Epoch: 07 December)

Event Time Altitude Azimuth Distance (km) Brightness Sun altitude
Rises 12:03:11 0° 162° (SSE) 3,274 7.0 -25.4°
Reaches altitude 10° 12:05:44 10° 152° (SSE) 2,355 6.3 -24.9°
Maximum altitude 12:10:24 32° 91° (E) 1,354 5.4 -23.9°
Drops below altitude 10° 12:15:09 10° 29° (NNE) 2,418 6.4 -22.9°
Sets 12:17:48 0° 20° (NNE) 3,375 7.1 -22.3°
